Flag for U.S.A. Weather past 2 weeks in South Bend, Indiana, U.S.A.

Now
52 °F

Mostly cloudy.


Feels Like: 49 °F
Forecast: 44 / 54 °F
Wind: 8 mph from Northwest

Location: Michiana Regional Airport

Current Time: Oct 20, 2014 at 10:27:35 PM

Latest Report: Oct 20, 2014 at 9:54 PM


Visibility: 10 mi

Pressure: 29.97 "Hg

Humidity: 83%

Dew point: 47 °F

Location of South BendLocation

Historic Weather in South Bend — Graph

°F

South Bend temperature yesterday

Maximum temperature yesterday: 54 °F (at 3:54 PM)
Minimum temperature yesterday: 32 °F (at 7:54 AM)
Average temperature yesterday: 44 °F

Past Weeks' High & Low Weather Summary

 TemperatureHumidityPressure
High74 °F (Oct 13, 3:54 PM)100% (Oct 10, 10:54 AM)30.28 "Hg (Oct 10, 10:54 AM)
Low32 °F (Oct 19, 7:54 AM)27% (Oct 8, 2:54 PM)29.51 "Hg (Oct 14, 1:54 PM)
Average54 °F76%29.85 "Hg
* Reported Oct 5 8:54 PM — Oct 20 8:54 PM, South Bend, Weather by CustomWeather, © 2014

Note: Actual official high and low records may vary slightly from our data, if they occured in-between our weather recording intervals... More about our weather records

Advertising

South Bend weather history for previous 24 hours

 ConditionsComfort  
Time TempWeatherWind HumidityBarometerVisibility
8:54 PM
Oct 20
52 °FMostly cloudy.10 mph83%29.96 "Hg10 mi
7:54 PM53 °FMostly cloudy.13 mph80%29.95 "Hg10 mi
6:54 PM54 °FMostly cloudy.9 mph80%29.92 "Hg10 mi
5:54 PM55 °FOvercast.12 mph77%29.89 "Hg10 mi
4:54 PM56 °FOvercast.12 mph75%29.87 "Hg10 mi
3:54 PM59 °FSunny.14 mph67%29.84 "Hg10 mi
2:54 PM60 °FPassing clouds.13 mph65%29.83 "Hg10 mi
1:54 PM60 °FPartly sunny.13 mph67%29.83 "Hg10 mi
12:54 PM60 °FPartly sunny.5 mph65%29.84 "Hg10 mi
11:54 AM56 °FScattered clouds.9 mph75%29.84 "Hg10 mi
10:54 AM53 °FSunny.9 mph80%29.85 "Hg10 mi
9:54 AM50 °FPartly sunny.9 mph86%29.86 "Hg10 mi
8:54 AM50 °FPassing clouds.8 mph80%29.85 "Hg10 mi
7:54 AM49 °FClear.10 mph84%29.84 "Hg10 mi
6:54 AM50 °FPassing clouds.12 mph80%29.85 "Hg10 mi
5:54 AM50 °FPassing clouds.12 mph77%29.86 "Hg10 mi
4:54 AM50 °FOvercast.15 mph77%29.88 "Hg10 mi
3:54 AM50 °FOvercast.15 mph77%29.90 "Hg10 mi
2:54 AM49 °FOvercast.14 mph80%29.93 "Hg10 mi
1:54 AM50 °FOvercast.12 mph77%29.95 "Hg10 mi
12:54 AM50 °FMostly cloudy.10 mph74%29.97 "Hg10 mi
10:54 PM
Oct 19
49 °FClear.10 mph71%29.99 "Hg10 mi
Weather by CustomWeather, © 2014

See weather overviewHow to use our weather pages